Manhattan, KS

3:46 PM CST on December 09, 2019 (GMT -0600)
Manhattan Regional

Weather History for KMHK - November, 2019

Change the Weather History Date:

Wednesday, November 13, 2019

  Actual Average Record
Temperature  
Mean Temperature 36 °F 44 °F  
Max Temperature 46 °F 56 °F 84 °F (1999)
Min Temperature 25 °F 31 °F 8 °F (2014)
Degree Days  
Heating Degree Days 30 21  
Month to date heating degree days 341 242  
Since 1 July heating degree days 774 641  
Cooling Degree Days 0 0  
Month to date cooling degree days 0 0  
Year to date cooling degree days 1610 1361  
Moisture  
Dew Point 16 °F    
Average Humidity 46    
Maximum Humidity 78    
Minimum Humidity 31    
Precipitation  
Precipitation 0.00 in 0.05 in 0.01 in (2008)
Month to date precipitation T 0.88  
Year to date precipitation 40.84 30.81  
Sea Level Pressure  
Sea Level Pressure 30.06 in    
Wind  
Wind Speed 7 mph ()    
Max Wind Speed 20 mph    
Max Gust Speed 30 mph    
Visibility 10.0 miles    
Events      
T = Trace of Precipitation, MM = Missing Value Source: Averaged Metar Reports

Daily Weather History Graph

Daily Weather History Graph

Search for Another Location

Airport or City:

Astronomy

Nov. 13, 2019 Rise Set
Actual Time 7:07 AM CST 5:14 PM CST
Civil Twilight 6:38 AM CST 5:42 PM CST
Nautical Twilight 6:06 AM CST 6:14 PM CST
Astronomical Twilight 5:35 AM CST 6:46 PM CST
Moon 6:18 PM CST (11/13) 8:01 AM CST (11/13)
Length of Visible Light 11h 03m
Length of Day
10h 06m
Full, 99% of the Moon is Illuminated
Nov 13
Full
Nov 19
Last Quarter
Nov 26
New
Dec 4
First Quarter
Dec 11
Full

Hourly Weather History & Observations

Time (CST) Temp. Windchill Dew Point Humidity Pressure Visibility Wind Dir Wind Speed Gust Speed Precip Events Conditions
12:52 AM 26.1 °F 16.2 °F 9.0 °F 49% 30.13 in 10.0 mi SSW 10.4 mph 21.9 mph N/A   Clear
1:52 AM 27.0 °F 16.7 °F 9.0 °F 47% 30.09 in 10.0 mi SSW 11.5 mph - N/A   Clear
2:52 AM 28.0 °F 17.0 °F 10.0 °F 47% 30.05 in 10.0 mi SSW 13.8 mph 26.5 mph N/A   Clear
3:52 AM 28.0 °F 20.0 °F 10.0 °F 47% 30.03 in 10.0 mi SSW 8.1 mph - N/A   Clear
4:52 AM 28.0 °F 19.3 °F 12.0 °F 51% 30.02 in 10.0 mi SSW 9.2 mph - N/A   Clear
5:52 AM 28.0 °F 18.1 °F 12.0 °F 51% 30.01 in 10.0 mi SSW 11.5 mph - N/A   Clear
6:52 AM 28.0 °F 19.3 °F 12.0 °F 51% 29.99 in 10.0 mi SSW 9.2 mph - N/A   Clear
7:52 AM 30.9 °F 22.2 °F 12.9 °F 47% 30.00 in 10.0 mi SSW 10.4 mph - N/A   Clear
8:52 AM 33.1 °F 23.0 °F 12.9 °F 43% 30.00 in 10.0 mi SSW 15.0 mph - N/A   Clear
9:52 AM 34.0 °F 26.0 °F 14.0 °F 44% 29.99 in 10.0 mi South 10.4 mph 20.7 mph N/A   Clear
10:52 AM 37.0 °F 30.4 °F 15.1 °F 41% 30.00 in 10.0 mi SW 9.2 mph - N/A   Clear
11:52 AM 41.0 °F 34.3 °F 16.0 °F 36% 29.99 in 10.0 mi SSW 11.5 mph - N/A   Clear
12:52 PM 43.0 °F 37.7 °F 17.1 °F 35% 29.99 in 10.0 mi West 9.2 mph - N/A   Clear
1:52 PM 44.1 °F 39.0 °F 18.0 °F 35% 30.00 in 10.0 mi West 9.2 mph - N/A   Clear
2:52 PM 46.0 °F 42.5 °F 18.0 °F 33% 30.01 in 10.0 mi Variable 6.9 mph - N/A   Clear
3:52 PM 45.0 °F - 18.0 °F 34% 30.01 in 10.0 mi Calm Calm - N/A   Clear
4:52 PM 43.0 °F 41.3 °F 19.0 °F 38% 30.05 in 10.0 mi NNW 3.5 mph - N/A   Partly Cloudy
5:52 PM 43.0 °F - 19.0 °F 38% 30.07 in 10.0 mi Calm Calm - N/A   Overcast
6:52 PM 42.1 °F 40.2 °F 19.0 °F 40% 30.10 in 10.0 mi NW 3.5 mph - N/A   Overcast
7:52 PM 41.0 °F - 19.9 °F 43% 30.13 in 10.0 mi Calm Calm - N/A   Overcast
8:52 PM 41.0 °F - 19.9 °F 43% 30.15 in 10.0 mi Calm Calm - N/A   Mostly Cloudy
9:52 PM 30.9 °F - 19.0 °F 61% 30.16 in 10.0 mi Calm Calm - N/A   Clear
10:52 PM 30.9 °F - 24.1 °F 76% 30.18 in 10.0 mi Calm Calm - N/A   Clear
11:52 PM 33.1 °F - 25.0 °F 72% 30.19 in 10.0 mi Calm Calm - N/A   Overcast